User: anonymous   Login
Location: M.A.R.S.Observatory
(35.4031°N, 81.5481°W)
Time: 13:54:27
(UTC-04:00)
Language:

SL-8 R/B - Orbit

View from above orbital plane
View from above orbital plane
View from above satellite
View from above satellite

Ground track
Ground track

The orbit data is extracted from the following two-line orbital elements,

1 33066U 08031G   15215.09335561  .00000036  00000-0  38833-4 0  9994
2 33066 048.4443 069.6582 0007338 106.1445 032.4965 14.69265862382152
Epoch (UTC): 03 August 2015 02:14:25
Eccentricity: 0.0007338
inclination: 48.4443°
perigee height: 658 km
apogee height: 668 km
right ascension of ascending node: 69.6582°
argument of perigee: 106.1445°
revolutions per day: 14.69265862
mean anomaly at epoch: 32.4965°
orbit number at epoch: 38215

The dashed part of the orbit path shows where the satellite is in the earth's shadow,  

DLR